Hourly Data Report for December 22, 2017

VICTORIA UNIVERSITY CS
BRITISH COLUMBIA

48°27'25.200" N
123°18'16.600" W
60.10 m
1018598
71783
WYJ

Download Data

Hourly Data (December 2017)
Hourly Data Report for December 22, 2017
TIME
LST
Temp Definition
°C
Dew Point Definition
°C
Rel Hum Definition
%
Precip. Amount Definition
mm

Wind Dir Definition
10's deg

Wind Spd Definition
km/h
Visibility Definition
km
Stn Press Definition
kPa
Hmdx Definition


Wind Chill Definition


Weather Definition


00:00 2.3 1.8 96 0.5 2 6   101.68     LegendNANA
01:00 2.4 1.4 93 0.0 4 3   101.64     LegendNANA
02:00 2.5 1.5 93 0.0 1 6   101.66     LegendNANA
03:00 2.3 1.3 93 0.2 3 9   101.68     LegendNANA
04:00 2.4 1.5 94 0.0 2 3   101.65     LegendNANA
05:00 2.7 1.5 92 0.0 1 4   101.64     LegendNANA
06:00 2.5 1.7 94 0.0 31 4   101.65     LegendNANA
07:00 2.3 1.2 93 0.0 32 7   101.64     LegendNANA
08:00 1.8 0.2 89 0.0 33 7   101.65     LegendNANA
09:00 1.7 0.2 90 0.0 31 7   101.71     LegendNANA
10:00 2.7 0.4 85 0.0 33 9   101.77     LegendNANA
11:00 3.8 0.8 81 0.0 34 9   101.78     LegendNANA
12:00 3.9 0.7 80 0.0 36 9   101.79     LegendNANA
13:00 4.0 0.6 78 0.0 35 9   101.78     LegendNANA
14:00 4.0 -3.7 57 0.0 4 8   101.79     LegendNANA
15:00 3.8 -3.2 60 0.0 2 8   101.83     LegendNANA
16:00 3.4 -6.9 47 0.0 2 12   101.85     LegendNANA
17:00 2.9 -6.9 48 0.0 4 8   101.87     LegendNANA
18:00 2.8 -8.5 43 0.2 3 13   101.92     LegendNANA
19:00 2.4 -7.8 47 0.0 4 12   101.90     LegendNANA
20:00 2.3 -8.1 46 0.0 4 16   101.95     LegendNANA
21:00 1.9 -8.3 47 0.0 5 12   102.02     LegendNANA
22:00 1.5 -8.8 46 0.0 5 10   102.11     LegendNANA
23:00 1.4 -9.8 43 0.0 4 13   102.16     LegendNANA

Notes on Data Quality.

Legend

  • E = Estimated
  • M = Missing
  • NA = Not Available*
  • [empty] = Indicates an unobserved value
Date modified: